Wind_Speed
28 27 25 25 26 24 22 21 20 19 19 19 20 21 20 21 20 18 18 17 13 11 8 6 6 5 6 5 7 3 7 3 4 7 10 10 10 7 3 4 4 2 2 5 12 17 21
30 28 27 25 26 24 22 21 20 20 20 19 19 20 19 19 18 17 16 13 11 9 6 6 7 5 6 5 3 3 10 7 7 6 9 12 7 10 4 4 5 6 6 6 11 12 12
32 30 28 26 25 24 22 21 20 20 19 18 18 18 18 17 16 15 13 11 9 6 6 7 6 6 10 11 3 10 8 7 5 5 7 7 13 10 5 4 4 8 4 5 4 4 4
33 32 30 28 26 24 22 21 20 19 18 17 17 16 16 14 14 12 9 8 6 5 7 6 5 6 9 3 8 7 4 4 5 4 6 6 8 9 4 10 6 5 5 3 3 2 2
35 33 31 29 26 24 22 21 20 19 17 16 15 14 14 12 12 9 6 6 6 7 6 4 4 5 7 2 6 4 4 3 2 3 3 4 10 5 4 5 5 6 4 2 2 1 3
37 34 33 30 27 24 23 21 19 18 15 15 14 12 12 10 9 7 8 9 8 6 5 3 4 4 5 1 3 6 4 3 1 2 4 3 4 5 5 5 5 5 3 2 3 2 6
39 35 34 31 28 26 24 21 19 17 15 14 13 11 9 9 10 12 13 10 4 3 10 8 4 3 1 8 2 6 3 2 1 4 3 6 7 3 3 3 3 3 4 2 1 3 7
41 38 35 33 30 27 25 22 19 17 15 13 11 9 9 10 13 16 15 5 3 1 5 17 13 11 15 10 3 5 3 1 3 2 1 6 4 3 4 5 6 5 6 3 2 6 7
44 40 37 34 31 30 26 23 19 17 15 13 11 9 10 13 15 16 15 4 3 5 3 4 12 8 3 3 3 5 4 3 3 3 5 6 0 3 4 5 9 4 5 2 3 3 6
47 43 39 35 33 31 28 24 20 17 15 14 12 13 15 16 14 15 12 3 2 2 4 4 4 2 4 3 2 5 5 2 4 4 5 5 3 4 6 6 3 3 0 3 4 3 3
49 47 42 36 34 32 29 25 21 18 16 16 15 17 19 19 7 16 4 4 3 2 3 3 3 1 4 4 6 2 3 2 4 4 4 1 2 5 7 1 3 1 5 5 4 5 4
49 50 43 38 35 33 30 25 23 19 19 19 19 19 20 16 12 13 6 4 4 6 3 2 5 4 4 2 2 2 3 6 6 6 6 3 3 3 2 3 3 4 5 8 5 3 2
48 50 43 39 36 34 30 26 23 20 21 21 21 22 23 14 11 12 6 6 5 4 2 3 4 3 3 2 4 4 5 5 4 5 4 6 4 5 3 3 3 6 5 3 3 3 4
37 52 45 39 37 34 31 27 24 22 23 22 22 23 23 16 14 10 8 4 2 3 5 1 4 3 4 3 4 4 3 3 5 4 3 4 4 3 5 2 4 3 5 4 4 3 3
31 55 47 42 39 34 31 26 23 24 25 24 23 24 21 16 14 11 5 4 6 6 3 6 4 5 1 2 5 4 3 2 1 1 5 4 0 2 2 2 3 2 3 4 6 1 3
40 56 49 43 40 36 31 27 24 26 27 26 25 24 17 17 15 11 4 5 3 4 1 4 4 4 4 4 4 4 1 2 2 3 2 5 4 2 2 3 6 2 5 3 3 2 3
42 55 48 44 41 36 32 28 27 29 28 26 26 10 17 17 14 7 4 5 4 8 5 4 5 4 4 4 3 2 2 1 1 2 4 3 4 4 1 3 3 2 2 6 4 3 4
49 53 45 45 39 36 32 30 31 32 31 31 19 3 18 19 4 2 4 5 2 4 2 3 4 3 5 3 4 3 4 2 2 1 3 1 5 2 2 2 2 2 3 4 4 3 1
59 45 45 44 38 36 32 32 34 35 35 30 12 6 15 18 4 1 3 1 2 2 3 2 3 3 3 4 5 2 3 1 1 2 6 5 2 3 6 5 4 2 3 4 5 3 5
54 49 46 41 37 35 33 34 36 38 36 25 13 3 4 6 4 7 5 3 2 2 3 5 4 5 5 4 5 5 3 1 1 3 5 4 3 5 7 4 3 4 4 4 5 3 4
50 47 43 39 36 33 33 35 39 40 37 20 8 3 8 3 1 3 5 6 4 2 3 4 4 3 4 4 3 3 2 2 4 3 3 3 4 2 2 3 2 2 4 6 7 5 6
45 44 41 36 34 32 33 36 40 41 38 18 8 6 5 4 16 6 3 6 6 3 3 2 6 2 2 6 6 8 6 4 4 3 3 3 2 1 2 3 5 3 6 7 5 3 7
44 41 36 33 32 31 33 38 42 42 39 16 8 10 12 1 4 5 6 6 7 7 3 3 6 5 3 1 4 12 7 11 7 5 3 3 5 3 4 4 5 6 9 9 5 5 7
41 38 33 30 30 30 33 37 41 42 39 18 11 12 6 2 3 6 8 4 5 3 7 3 6 5 10 28 27 22 24 22 20 12 5 5 4 3 2 3 2 6 2 5 8 5 7
36 33 31 29 27 28 32 36 39 41 38 20 11 7 5 2 3 3 7 6 13 9 5 4 3 8 23 6 5 5 5 6 5 6 7 4 5 3 3 3 6 5 5 6 7 7 8
36 31 28 26 26 27 31 35 37 39 39 23 11 9 4 13 5 7 6 7 5 4 3 4 8 28 2 5 4 4 4 4 2 1 5 5 6 4 3 4 6 6 3 4 4 5 7
32 30 27 24 24 28 31 32 34 37 39 23 10 9 5 7 6 12 4 8 9 6 4 5 9 3 2 3 3 3 3 2 4 5 3 3 3 4 2 3 8 7 3 4 5 7 8
30 28 25 23 23 27 28 29 32 33 34 21 11 10 6 7 7 6 9 10 11 9 5 11 6 1 4 4 3 3 3 5 2 4 6 7 6 4 3 2 7 8 4 7 6 7 9
28 27 25 22 23 25 24 27 29 30 30 22 7 9 11 8 11 15 12 9 7 8 13 18 5 6 7 5 1 3 2 1 2 3 2 2 6 5 8 6 5 13 7 15 6 6 9
Wind_Direction
264 268 267 260 254 253 257 263 265 271 275 282 289 292 296 297 294 292 284 276 272 260 257 250 238 235 270 266 255 344 19 290 259 234 227 220 194 191 183 191 175 155 339 114 123 152 160
258 262 264 260 253 254 256 258 262 269 273 282 288 291 293 292 289 283 275 272 261 252 240 221 217 237 260 259 232 316 341 330 284 255 231 218 213 219 232 256 167 168 73 95 121 121 146
255 258 258 259 248 249 253 256 260 265 273 283 287 289 291 288 282 273 268 260 250 228 206 200 223 246 252 229 221 311 318 312 304 280 235 228 229 217 193 137 127 103 60 44 48 111 107
250 254 255 258 249 246 247 251 257 264 272 281 283 287 287 285 273 261 253 241 228 191 185 207 238 257 253 235 264 277 265 311 301 237 262 273 214 216 214 127 44 67 55 80 294 105 95
246 251 252 254 250 245 245 246 252 261 271 276 279 283 283 276 259 242 224 209 181 171 191 219 241 234 263 242 248 248 249 315 289 242 272 234 158 154 124 88 41 12 155 183 80 84 116
243 245 248 249 249 243 241 243 249 258 266 269 274 278 274 257 231 200 179 169 163 184 200 218 230 255 265 21 219 224 257 315 268 195 226 107 59 63 37 72 190 195 141 230 199 164 44
240 241 244 245 245 239 238 238 244 253 256 261 264 265 254 228 196 176 161 151 166 219 214 208 193 226 204 5 188 201 242 268 61 91 52 14 72 120 219 191 180 147 134 131 264 353 81
236 238 240 241 240 236 232 235 238 245 245 250 252 244 226 199 182 169 167 185 190 203 269 240 248 276 270 298 302 239 225 164 80 115 97 35 87 220 119 100 102 79 98 68 48 6 89
234 235 237 238 236 231 229 229 232 236 236 237 231 212 195 180 176 176 179 167 238 275 233 214 236 253 260 234 215 161 175 137 117 91 63 120 133 111 92 56 73 43 107 126 153 85 65
236 233 235 234 232 227 225 224 225 228 226 225 209 190 181 173 180 186 191 161 201 254 71 286 210 234 186 222 66 138 138 174 33 111 115 79 355 105 66 71 94 107 141 110 83 88 163
231 231 232 232 229 222 221 220 220 220 215 213 195 184 182 172 184 183 186 204 198 209 88 248 186 164 177 166 140 73 102 122 129 118 99 264 61 76 67 89 75 134 59 59 85 81 81
228 229 228 228 224 218 218 216 215 211 208 202 189 184 181 175 184 184 205 187 165 46 260 184 155 163 106 71 59 107 96 77 92 69 41 59 46 58 97 61 56 118 57 38 43 67 42
228 223 223 224 220 216 215 213 211 204 203 195 186 185 182 173 175 191 207 166 48 125 317 186 154 135 114 73 55 51 30 24 95 89 26 13 355 337 45 87 54 72 64 5 5 8 219
233 221 214 220 215 213 212 211 206 201 197 190 184 188 184 171 171 187 179 61 153 233 221 153 119 79 139 134 23 42 71 68 27 78 98 127 341 11 344 81 163 69 138 152 216 197 247
256 219 212 214 207 208 209 207 204 197 191 186 182 185 187 177 177 181 188 81 210 212 203 140 67 99 98 79 119 84 60 101 47 35 125 133 314 327 71 63 110 182 55 156 107 345 55
252 213 207 209 203 201 202 201 198 195 186 182 183 180 183 174 173 174 91 206 228 219 273 127 135 151 139 143 89 83 86 324 110 28 151 192 108 25 343 98 46 119 146 68 11 129 274
246 210 203 203 198 197 197 195 193 189 183 175 176 175 177 171 163 173 158 213 259 261 224 134 158 134 138 132 99 85 148 345 17 48 82 117 100 282 30 38 163 27 63 53 104 111 160
212 199 197 198 194 193 193 191 189 184 179 170 180 123 170 167 98 80 159 186 269 270 58 78 101 102 138 123 95 118 155 171 358 240 103 55 125 122 202 266 237 179 146 134 112 211 78
205 187 193 194 189 191 190 189 187 181 179 168 166 118 164 175 133 266 254 200 248 300 37 94 103 102 82 122 101 120 120 12 7 85 163 178 25 64 353 351 344 180 119 100 106 86 196
181 191 191 189 186 190 188 187 184 181 178 172 169 99 121 178 146 147 142 163 240 304 71 77 112 94 99 71 27 144 133 19 58 102 110 110 104 156 186 204 171 174 169 155 125 124 184
179 186 186 184 185 188 187 185 182 181 178 178 170 169 155 177 213 180 122 173 177 145 80 51 49 81 137 115 77 110 123 123 57 120 57 93 131 125 78 6 336 249 195 179 191 191 176
179 182 182 180 183 186 186 184 181 181 179 189 144 137 130 133 159 123 125 192 162 118 56 57 114 85 75 148 176 189 143 183 185 64 82 16 160 127 200 357 18 287 260 230 220 195 263
177 176 176 178 181 184 185 183 180 182 180 185 154 145 165 89 114 113 189 172 198 128 43 68 152 104 62 143 106 111 116 113 118 128 114 82 126 103 255 7 350 329 228 206 197 188 163
170 171 172 175 179 183 182 181 181 182 181 180 167 158 135 182 149 180 165 154 153 171 144 78 112 99 126 113 101 90 79 75 69 45 69 120 95 73 191 23 353 237 217 213 215 213 200
161 166 169 170 176 178 178 179 180 182 181 183 170 172 151 130 179 126 129 116 104 86 77 86 49 133 139 114 65 49 353 21 11 35 22 62 116 82 136 201 300 293 195 172 177 266 194
160 159 163 165 169 171 173 176 179 182 183 186 197 199 178 127 231 146 136 158 138 119 49 82 107 152 104 75 75 131 192 206 265 40 47 56 66 110 97 146 224 242 264 172 114 297 210
154 158 155 156 160 164 167 173 178 181 186 187 203 200 188 114 143 157 146 165 140 113 107 124 144 186 71 70 81 140 226 192 178 176 198 46 12 159 125 228 288 244 216 141 103 236 187
149 152 148 146 149 155 161 168 171 175 181 191 198 196 181 118 115 151 139 152 150 150 134 154 89 290 51 71 123 203 143 219 135 180 177 168 155 198 102 75 278 177 113 168 215 189 198
144 146 147 137 139 143 151 159 164 168 172 172 184 180 134 125 117 112 120 147 163 149 139 160 163 156 156 90 93 106 139 149 133 238 54 236 190 181 186 215 231 204 231 222 240 244 218
Height
1500 1502 1500 1501 1502 1503 1504 1506 1506 1506 1505 1505 1504 1504 1501 1500 1499 1498 1498 1498 1497 1498 1498 1499 1500 1500 1501 1500 1496 1494 1493 1494 1494 1494 1494 1496 1496 1498 1498 1499 1499 1499 1498 1499 1498 1502 1506
1496 1496 1497 1496 1498 1500 1501 1501 1502 1503 1502 1501 1500 1500 1498 1496 1496 1496 1496 1496 1496 1496 1497 1497 1499 1499 1500 1500 1494 1493 1492 1492 1492 1491 1492 1493 1493 1495 1497 1496 1497 1497 1500 1501 1502 1504 1507
1491 1492 1492 1492 1491 1494 1497 1498 1498 1499 1498 1497 1497 1496 1495 1493 1493 1494 1494 1494 1495 1495 1496 1497 1498 1498 1499 1493 1493 1492 1492 1491 1490 1490 1490 1491 1493 1496 1497 1497 1497 1499 1503 1502 1505 1505 1509
1484 1487 1487 1489 1489 1490 1491 1493 1495 1495 1495 1494 1493 1493 1492 1490 1491 1491 1492 1493 1494 1494 1495 1497 1497 1497 1494 1492 1492 1492 1491 1491 1490 1490 1490 1492 1492 1495 1495 1496 1499 1504 1508 1517 1506 1505 1511
1478 1481 1482 1484 1486 1487 1488 1488 1490 1491 1491 1491 1490 1489 1489 1488 1489 1490 1491 1493 1493 1494 1495 1496 1497 1497 1492 1491 1491 1491 1491 1491 1490 1490 1490 1490 1492 1493 1495 1500 1513 1513 1521 1516 1510 1507 1509
1471 1473 1477 1479 1481 1483 1484 1485 1486 1488 1487 1488 1487 1486 1486 1487 1488 1489 1490 1492 1493 1494 1495 1496 1497 1499 1490 1491 1490 1491 1491 1491 1491 1490 1490 1489 1490 1495 1501 1507 1529 1519 1517 1515 1514 1511 1512
1464 1467 1470 1473 1476 1478 1480 1480 1482 1484 1484 1485 1484 1484 1484 1485 1486 1488 1490 1492 1497 1497 1493 1490 1491 1489 1488 1489 1489 1490 1491 1491 1491 1490 1495 1492 1501 1511 1504 1503 1503 1506 1512 1514 1514 1511 1523
1456 1460 1463 1466 1470 1474 1475 1477 1478 1480 1481 1482 1482 1482 1483 1485 1486 1487 1489 1490 1491 1493 1491 1489 1489 1488 1488 1489 1489 1489 1491 1492 1491 1496 1494 1501 1510 1503 1503 1503 1506 1509 1517 1518 1516 1516 1521
1449 1452 1455 1460 1464 1468 1471 1472 1474 1476 1478 1479 1479 1479 1482 1485 1486 1487 1489 1490 1490 1490 1490 1487 1486 1487 1487 1488 1488 1488 1490 1491 1492 1494 1498 1505 1504 1501 1501 1506 1509 1515 1519 1518 1520 1519 1523
1440 1445 1450 1453 1458 1462 1466 1468 1469 1473 1474 1476 1476 1478 1481 1484 1489 1487 1488 1489 1489 1490 1498 1490 1486 1485 1486 1486 1488 1488 1489 1491 1492 1498 1499 1504 1502 1503 1505 1509 1512 1518 1514 1515 1519 1526 1539
1429 1437 1443 1447 1452 1456 1461 1464 1466 1468 1470 1474 1474 1476 1480 1484 1484 1486 1488 1488 1489 1489 1522 1486 1484 1484 1484 1487 1488 1489 1489 1489 1493 1497 1501 1508 1505 1507 1511 1511 1508 1515 1514 1517 1521 1531 1534
1419 1429 1435 1441 1445 1450 1455 1458 1462 1464 1467 1471 1472 1475 1480 1482 1483 1485 1487 1487 1489 1506 1514 1486 1481 1483 1485 1486 1487 1488 1488 1490 1492 1498 1501 1506 1504 1506 1508 1510 1510 1512 1518 1525 1531 1538 1555
1410 1419 1427 1435 1440 1446 1450 1454 1457 1459 1465 1468 1470 1474 1478 1480 1482 1484 1486 1487 1504 1517 1485 1488 1485 1483 1485 1489 1490 1490 1495 1499 1503 1514 1517 1512 1511 1509 1509 1512 1513 1518 1529 1556 1557 1564 1558
1400 1411 1420 1428 1435 1441 1445 1449 1453 1456 1462 1465 1468 1473 1476 1478 1480 1483 1485 1488 1502 1492 1489 1481 1482 1486 1491 1489 1495 1496 1499 1507 1503 1505 1521 1526 1531 1514 1511 1513 1518 1521 1527 1553 1545 1563 1555
1393 1403 1412 1420 1428 1435 1441 1445 1449 1453 1458 1463 1466 1471 1474 1477 1479 1482 1484 1506 1499 1492 1480 1482 1484 1492 1493 1491 1494 1499 1504 1508 1505 1504 1515 1523 1522 1512 1512 1512 1515 1522 1535 1531 1552 1561 1566
1385 1392 1404 1414 1422 1429 1435 1441 1445 1451 1455 1460 1464 1470 1472 1474 1477 1480 1485 1494 1487 1480 1478 1478 1490 1489 1496 1494 1498 1502 1504 1506 1506 1505 1504 1513 1525 1515 1513 1513 1516 1517 1525 1541 1552 1556 1550
1375 1382 1397 1407 1415 1423 1430 1436 1442 1448 1454 1458 1465 1468 1468 1472 1475 1478 1492 1488 1482 1476 1476 1477 1485 1490 1491 1495 1498 1504 1507 1507 1505 1505 1505 1509 1519 1525 1516 1522 1523 1526 1530 1539 1544 1558 1564
1366 1376 1390 1401 1409 1418 1424 1431 1438 1445 1451 1456 1461 1464 1466 1470 1475 1481 1486 1480 1478 1475 1473 1474 1478 1482 1490 1493 1500 1503 1506 1505 1505 1505 1509 1512 1524 1536 1523 1518 1519 1519 1524 1533 1556 1547 1568
1358 1369 1385 1397 1404 1413 1420 1427 1434 1441 1447 1452 1457 1460 1464 1468 1482 1486 1479 1477 1478 1475 1475 1475 1479 1480 1486 1494 1504 1504 1505 1505 1504 1506 1509 1511 1526 1544 1535 1527 1520 1519 1524 1532 1539 1550 1552
1353 1370 1383 1393 1400 1410 1416 1423 1430 1438 1444 1451 1454 1462 1464 1467 1469 1473 1475 1477 1478 1475 1474 1475 1480 1481 1487 1496 1498 1506 1507 1506 1506 1506 1507 1508 1523 1526 1537 1525 1524 1523 1522 1527 1531 1555 1547
1356 1370 1381 1389 1398 1406 1412 1419 1426 1435 1442 1448 1448 1453 1455 1468 1470 1470 1470 1476 1478 1477 1475 1476 1481 1482 1487 1498 1500 1505 1505 1506 1507 1507 1508 1510 1522 1522 1525 1526 1522 1520 1521 1526 1528 1529 1534
1359 1370 1380 1388 1396 1403 1409 1416 1423 1431 1439 1445 1445 1449 1454 1460 1464 1469 1471 1475 1476 1476 1477 1480 1483 1486 1486 1493 1493 1503 1502 1504 1504 1507 1510 1513 1528 1523 1525 1529 1530 1525 1522 1523 1524 1523 1526
1361 1371 1380 1388 1395 1400 1407 1413 1419 1428 1436 1442 1444 1446 1450 1464 1466 1470 1472 1473 1475 1474 1481 1480 1482 1486 1489 1490 1490 1491 1496 1498 1500 1506 1513 1517 1527 1533 1538 1538 1534 1538 1518 1517 1514 1514 1515
1363 1373 1381 1387 1393 1399 1404 1410 1418 1426 1434 1441 1443 1446 1449 1467 1466 1466 1466 1468 1473 1474 1479 1483 1484 1486 1494 1491 1494 1497 1499 1502 1504 1509 1510 1520 1529 1544 1549 1547 1551 1509 1506 1507 1508 1505 1506
1364 1373 1382 1387 1393 1397 1402 1409 1417 1425 1433 1439 1442 1446 1447 1463 1461 1463 1464 1469 1473 1476 1480 1483 1485 1486 1490 1491 1503 1510 1519 1513 1515 1516 1515 1514 1527 1549 1551 1550 1525 1500 1502 1505 1504 1503 1500
1370 1375 1382 1388 1392 1396 1401 1408 1415 1423 1431 1438 1442 1444 1447 1450 1460 1458 1463 1467 1474 1479 1483 1486 1488 1490 1491 1496 1509 1525 1525 1514 1518 1516 1518 1519 1522 1534 1558 1553 1548 1506 1497 1497 1497 1512 1493
1370 1380 1383 1388 1391 1396 1401 1408 1415 1422 1431 1438 1442 1444 1446 1449 1454 1457 1459 1465 1468 1474 1483 1486 1490 1492 1492 1506 1526 1528 1522 1516 1521 1524 1530 1533 1538 1544 1567 1556 1527 1499 1497 1498 1513 1509 1492
1374 1380 1386 1390 1393 1397 1402 1408 1415 1422 1430 1437 1441 1443 1445 1447 1454 1456 1457 1460 1465 1468 1477 1484 1491 1492 1496 1508 1518 1522 1528 1518 1518 1513 1519 1523 1531 1533 1549 1556 1527 1495 1499 1505 1494 1488 1489
1379 1384 1388 1393 1396 1400 1405 1410 1415 1422 1431 1434 1436 1442 1443 1446 1455 1457 1458 1460 1463 1466 1469 1477 1480 1482 1485 1501 1512 1516 1522 1519 1520 1520 1511 1518 1510 1517 1517 1509 1492 1492 1488 1488 1487 1487 1487